• In Netherlands
  • List of Countries
  • For 7 days
  • Water Temperature
  • Satellite Maps
  • Weather Map
  • Weather Widgets
  • user-avatar
    Login

    Hourly Weather Kapan

    Today, 28 March, Tuesday

    Time Temperature Precipitation Wind Pressure Humidity
    00:00 +8°C° 0 mm 2 mps 681 mmHg 61%
    01:00 +8°C° 0 mm 3 mps 680 mmHg 62%
    02:00 +7°C° 0 mm 3 mps 680 mmHg 64%
    03:00 +7°C° 0 mm 3 mps 680 mmHg 65%
    04:00 +7°C° 0 mm 3 mps 680 mmHg 66%
    05:00 +7°C° 0 mm 3 mps 680 mmHg 67%
    06:00 +7°C° 0 mm 3 mps 680 mmHg 67%
    07:00 +9°C° 0 mm 3 mps 681 mmHg 61%
    08:00 +12°C° 0 mm 2 mps 681 mmHg 54%
    09:00 +13°C° 0 mm 3 mps 682 mmHg 50%
    10:00 +13°C° 0.1 mm 3 mps 682 mmHg 51%
    11:00 +13°C° 0.1 mm 3 mps 682 mmHg 51%
    12:00 +14°C° 0.1 mm 3 mps 682 mmHg 52%
    13:00 +13°C° 0.3 mm 3 mps 682 mmHg 54%
    14:00 +12°C° 0.3 mm 3 mps 682 mmHg 57%
    15:00 +12°C° 0.3 mm 3 mps 681 mmHg 59%
    16:00 +11°C° 0.2 mm 3 mps 682 mmHg 64%
    17:00 +9°C° 0.2 mm 2 mps 682 mmHg 69%
    18:00 +8°C° 0.2 mm 2 mps 682 mmHg 73%
    19:00 +8°C° 0.1 mm 1 mps 682 mmHg 76%
    20:00 +8°C° 0.1 mm 1 mps 682 mmHg 78%
    21:00 +7°C° 0.1 mm 1 mps 683 mmHg 80%
    22:00 +7°C° 0 mm 1 mps 683 mmHg 81%
    23:00 +6°C° 0 mm 1 mps 683 mmHg 81%

    Tomorrow, 29 March, Wednesday

    Time Temperature Precipitation Wind Pressure Humidity
    00:00 +6°C° 0 mm 1 mps 683 mmHg 81%
    01:00 +6°C° 0 mm 1 mps 683 mmHg 82%
    02:00 +6°C° 0 mm 1 mps 683 mmHg 82%
    03:00 +6°C° 0 mm 1 mps 683 mmHg 83%
    04:00 +6°C° 0 mm 1 mps 683 mmHg 83%
    05:00 +5°C° 0 mm 1 mps 683 mmHg 83%
    06:00 +4°C° 0 mm 2 mps 683 mmHg 83%
    07:00 +7°C° 0 mm 2 mps 684 mmHg 73%
    08:00 +9°C° 0 mm 2 mps 684 mmHg 63%
    09:00 +12°C° 0 mm 2 mps 685 mmHg 54%
    10:00 +13°C° 0 mm 2 mps 685 mmHg 50%
    11:00 +15°C° 0 mm 2 mps 685 mmHg 46%
    12:00 +16°C° 0 mm 2 mps 685 mmHg 41%
    13:00 +16°C° 0 mm 2 mps 685 mmHg 41%
    14:00 +16°C° 0 mm 2 mps 685 mmHg 40%
    15:00 +16°C° 0 mm 2 mps 685 mmHg 39%
    16:00 +14°C° 0 mm 2 mps 685 mmHg 45%
    17:00 +12°C° 0 mm 2 mps 684 mmHg 52%
    18:00 +11°C° 0 mm 1 mps 684 mmHg 58%
    19:00 +9°C° 0 mm 1 mps 685 mmHg 63%
    20:00 +8°C° 0 mm 1 mps 685 mmHg 68%
    21:00 +6°C° 0 mm 0 mps 686 mmHg 73%
    22:00 +5°C° 0 mm 0 mps 686 mmHg 74%
    23:00 +5°C° 0 mm 0 mps 686 mmHg 76%

    Day after tomorrow, 30 March, Thursday

    Time Temperature Precipitation Wind Pressure Humidity
    00:00 +4°C° 0 mm 0 mps 686 mmHg 77%
    01:00 +4°C° 0 mm 0 mps 686 mmHg 78%
    02:00 +4°C° 0 mm 0 mps 686 mmHg 79%
    03:00 +3°C° 0 mm 0 mps 686 mmHg 80%
    04:00 +3°C° 0 mm 0 mps 686 mmHg 80%
    05:00 +3°C° 0 mm 0 mps 686 mmHg 80%
    06:00 +3°C° 0 mm 0 mps 686 mmHg 80%
    07:00 +5°C° 0 mm 0 mps 687 mmHg 70%
    08:00 +9°C° 0 mm 1 mps 687 mmHg 59%
    09:00 +12°C° 0 mm 1 mps 688 mmHg 49%
    10:00 +13°C° 0 mm 1 mps 687 mmHg 46%
    11:00 +15°C° 0 mm 1 mps 687 mmHg 43%
    12:00 +16°C° 0 mm 2 mps 687 mmHg 41%
    13:00 +16°C° 0 mm 2 mps 686 mmHg 41%
    14:00 +16°C° 0 mm 2 mps 685 mmHg 42%
    15:00 +16°C° 0 mm 2 mps 685 mmHg 43%
    16:00 +15°C° 0 mm 2 mps 684 mmHg 50%
    17:00 +13°C° 0 mm 1 mps 684 mmHg 57%
    18:00 +11°C° 0 mm 1 mps 683 mmHg 64%
    19:00 +10°C° 0 mm 1 mps 683 mmHg 65%
    20:00 +9°C° 0 mm 1 mps 684 mmHg 66%
    21:00 +8°C° 0 mm 1 mps 684 mmHg 67%
    22:00 +8°C° 0 mm 1 mps 684 mmHg 65%
    23:00 +7°C° 0 mm 2 mps 684 mmHg 63%

    31 March, Friday

    Time Temperature Precipitation Wind Pressure Humidity
    00:00 +7°C° 0 mm 2 mps 683 mmHg 61%
    01:00 +7°C° 0 mm 2 mps 683 mmHg 61%
    02:00 +7°C° 0 mm 2 mps 683 mmHg 61%
    03:00 +7°C° 0 mm 2 mps 683 mmHg 60%
    04:00 +7°C° 0 mm 2 mps 683 mmHg 62%
    05:00 +6°C° 0 mm 2 mps 683 mmHg 63%
    06:00 +6°C° 0 mm 2 mps 683 mmHg 64%
    07:00 +10°C° 0 mm 1 mps 684 mmHg 57%
    08:00 +12°C° 0 mm 1 mps 684 mmHg 50%
    09:00 +15°C° 0 mm 1 mps 685 mmHg 42%
    10:00 +16°C° 0 mm 1 mps 684 mmHg 41%
    11:00 +16°C° 0 mm 2 mps 684 mmHg 39%
    12:00 +17°C° 0 mm 2 mps 684 mmHg 38%
    13:00 +17°C° 0.1 mm 2 mps 683 mmHg 42%
    14:00 +16°C° 0.1 mm 3 mps 683 mmHg 46%
    15:00 +16°C° 0.1 mm 3 mps 682 mmHg 50%
    16:00 +14°C° 0.4 mm 2 mps 682 mmHg 58%
    17:00 +12°C° 0.4 mm 2 mps 683 mmHg 67%
    18:00 +10°C° 0.4 mm 2 mps 683 mmHg 76%
    19:00 +9°C° 1.1 mm 2 mps 683 mmHg 80%
    20:00 +8°C° 1.1 mm 2 mps 683 mmHg 85%
    21:00 +8°C° 1.1 mm 2 mps 684 mmHg 89%
    22:00 +7°C° 0.7 mm 2 mps 684 mmHg 90%
    23:00 +6°C° 0.7 mm 2 mps 684 mmHg 91%

    1 April, Saturday

    Time Temperature Precipitation Wind Pressure Humidity
    00:00 +6°C° 0.7 mm 2 mps 684 mmHg 91%
    01:00 +5°C° 0.5 mm 2 mps 684 mmHg 91%
    02:00 +4°C° 0.5 mm 2 mps 684 mmHg 92%
    03:00 +4°C° 0.5 mm 2 mps 684 mmHg 92%
    04:00 +3°C° 0.5 mm 2 mps 685 mmHg 91%
    05:00 +2°C° 0.5 mm 3 mps 685 mmHg 91%
    06:00 +2°C° 0.5 mm 3 mps 685 mmHg 90%
    07:00 +2°C° 0.5 mm 3 mps 686 mmHg 88%
    08:00 +2°C° 0.5 mm 3 mps 686 mmHg 86%
    09:00 +2°C° 0.5 mm 3 mps 686 mmHg 84%
    10:00 +3°C° 0.4 mm 3 mps 686 mmHg 82%
    11:00 +3°C° 0.4 mm 3 mps 686 mmHg 80%
    12:00 +3°C° 0.4 mm 3 mps 686 mmHg 78%
    13:00 +4°C° 0.3 mm 3 mps 686 mmHg 77%
    14:00 +4°C° 0.3 mm 3 mps 686 mmHg 77%
    15:00 +4°C° 0.3 mm 3 mps 685 mmHg 77%
    16:00 +4°C° 0.1 mm 2 mps 685 mmHg 79%
    17:00 +3°C° 0.1 mm 2 mps 685 mmHg 82%
    18:00 +3°C° 0.1 mm 2 mps 685 mmHg 85%
    19:00 +2°C° 0.2 mm 2 mps 685 mmHg 85%
    20:00 +2°C° 0.2 mm 2 mps 685 mmHg 85%
    21:00 +2°C° 0.2 mm 2 mps 686 mmHg 85%
    22:00 +2°C° 0.4 mm 2 mps 685 mmHg 86%
    23:00 +2°C° 0.4 mm 2 mps 685 mmHg 87%

    2 April, Sunday

    Time Temperature Precipitation Wind Pressure Humidity
    00:00 +1°C° 0.4 mm 2 mps 685 mmHg 87%
    01:00 +1°C° 0.2 mm 2 mps 685 mmHg 88%
    02:00 +2°C° 0.2 mm 1 mps 685 mmHg 90%
    03:00 +2°C° 0.2 mm 1 mps 685 mmHg 91%
    04:00 +2°C° 0.3 mm 1 mps 685 mmHg 90%
    05:00 +2°C° 0.3 mm 1 mps 685 mmHg 90%
    06:00 +2°C° 0.3 mm 1 mps 686 mmHg 89%
    07:00 +3°C° 0.3 mm 1 mps 686 mmHg 85%
    08:00 +4°C° 0.3 mm 1 mps 687 mmHg 81%
    09:00 +5°C° 0.3 mm 1 mps 687 mmHg 76%
    10:00 +6°C° 0.2 mm 1 mps 687 mmHg 74%
    11:00 +6°C° 0.2 mm 2 mps 687 mmHg 73%
    12:00 +7°C° 0.2 mm 2 mps 687 mmHg 71%
    13:00 +7°C° 0.1 mm 2 mps 687 mmHg 71%
    14:00 +7°C° 0.1 mm 2 mps 687 mmHg 71%
    15:00 +7°C° 0.1 mm 2 mps 686 mmHg 72%
    16:00 +6°C° 0.1 mm 2 mps 686 mmHg 76%
    17:00 +7°C° 0.1 mm 1 mps 686 mmHg 80%
    18:00 +6°C° 0.1 mm 1 mps 686 mmHg 84%
    19:00 +5°C° 0 mm 1 mps 687 mmHg 87%
    20:00 +3°C° 0 mm 1 mps 687 mmHg 89%
    21:00 +2°C° 0 mm 1 mps 687 mmHg 91%
    22:00 +2°C° 0 mm 1 mps 687 mmHg 91%
    23:00 +2°C° 0 mm 1 mps 687 mmHg 91%
    Show more